www.pogodaiklimat.ru

Погода и климат >> Архив погоды >> Россия >> Тува >> Кызыл


АРХИВ ПОГОДЫ в Кызыле

Время (UTC), дата Ветер
(напр.,м/с)
 
Видим.   Явления Облачность Т
(С)
Тd
(С)
f
(%)
Тe
(С)
Тes
(С)
Комфортность P
(гПа)
Po
(гПа)
Тmin
(С)
Tmax
(С)
R
(мм)
R24
(мм)
S
(см)
06 13.02 В 1 10 км 4/0
[Ci fib]
-24.2 -28.9 65 -28 -23 холодно 1051.5 964.9
09 13.02 С 1 20 км 3/0
[Ci fib]
-20.8 -26.5 60 -24 -23 по сезону 1049.1 963.8
12 13.02 штиль 0 10 км ясно -26.0 -30.6 65 -26 -26 по сезону 1051.2 963.9 -20.4
15 13.02 штиль 0 10 км 5/0
[Ci fib]
-29.5 -32.6 74 -30 -30 прохладно 1052.6 964.1
18 13.02 штиль 0 10 км 3/0
[Ci fib]
-30.4 -33.4 75 -30 -30 по сезону 1053.2 964.3
21 13.02 СВ 1 10 км 8/0
[Ac trans Ci fib]
-32.4 -35.5 74 -37 -37 опасность
обморожения
1054.1 964.4
00 14.02 штиль 0 10 км ледяные иглы 5/0
[Ci fib]
-33.1 -36.0 75 -33 -33 опасность
обморожения
1054.6 964.6 -33.1 10
03 14.02 СВ 1 4000 м ледяные иглы 8/0
[Ac trans Ci fib]
-30.4 -33.4 75 -35 -33 опасность
обморожения
1055.1 966.0 -33.4
06 14.02 В 1 20 км 8/0
[Ac trans Ci fib]
-23.3 -27.3 70 -27 -24 прохладно 1052.0 965.6
09 14.02 штиль 0 20 км 3/0
[Ci fib]
-19.3 -25.1 60 -19 -18 по сезону 1049.7 964.8
12 14.02 С 1 10 км ясно -23.4 -28.2 65 -27 -27 прохладно 1050.7 964.4 -19.2
15 14.02 СВ 1 10 км ясно -27.0 -30.2 74 -31 -31 опасность
обморожения
1052.4 964.8
18 14.02 штиль 0 10 км ясно -30.5 -33.6 74 -31 -31 опасность
обморожения
1053.8 964.8
21 14.02 СВ 1 10 км ясно -31.3 -34.3 75 -36 -36 опасность
обморожения
1054.0 964.7
00 15.02 штиль 0 10 км 6/0
[Ac trans Ci fib]
-29.9 -33.0 74 -30 -30 по сезону 1053.8 965.0 -31.4
03 15.02 СВ 1 4000 м дымка 9/0
[Ac As]
-26.4 -29.6 74 -30 -29 прохладно 1053.0 965.5
06 15.02 В 1 10 км 9/0
[Ac trans Ci fib]
-19.8 -24.7 65 -23 -20 по сезону 1049.7 964.6
09 15.02 С 1 20 км ясно -16.6 -22.6 60 -19 -18 по сезону 1047.0 963.2
12 15.02 штиль 0 10 км ясно -22.7 -27.5 65 -23 -23 по сезону 1048.2 962.3 -16.5
15 15.02 штиль 0 10 км ясно -25.9 -29.1 74 -26 -26 по сезону 1050.8 963.6
18 15.02 СВ 1 10 км ясно -28.5 -31.0 79 -32 -32 опасность
обморожения
1051.8 963.6
21 15.02 СВ 1 50 км 3/0
[Ci fib]
-29.7 -32.2 79 -34 -34 опасность
обморожения
1051.3 962.8
00 16.02 В 1 10 км 3/0
[Ci fib]
-31.6 -33.9 80 -36 -36 опасность
обморожения
1052.8 963.0 -31.6 9
03 16.02 штиль 0 10 км 3/0
[Ci fib]
-29.3 -31.8 79 -29 -27 прохладно 1051.6 963.2 -32.2
06 16.02 С 1 20 км 4/0
[Ci fib]
-20.6 -24.6 70 -24 -19 по сезону 1046.7 961.6
09 16.02 В 2 20 км ясно -16.4 -22.4 60 -22 -20 по сезону 1043.1 959.6
12 16.02 штиль 0 10 км 3/0
[Ci fib]
-22.1 -26.2 69 -22 -22 по сезону 1043.9 958.5 -16.4
15 16.02 штиль 0 10 км ясно -26.8 -29.3 79 -27 -27 по сезону 1045.2 958.3
18 16.02 штиль 0 10 км ясно -29.7 -32.2 79 -30 -30 по сезону 1046.9 958.8
21 16.02 штиль 0 10 км 4/0
[Ci fib]
-29.7 -32.2 79 -30 -30 по сезону 1046.1 958.1
00 17.02 СВ 1 10 км ледяные иглы 3/0
[Ac trans Ci fib]
-31.0 -34.6 70 -35 -35 опасность
обморожения
1045.7 957.2 -31.0 10
03 17.02 СВ 1 2000 м ледяные иглы 5/0
[Ci fib]
-27.4 -29.8 80 -31 -29 опасность
обморожения
1044.3 957.2
06 17.02 С 1 20 км 8/0
[Ci fib]
-19.8 -23.9 70 -23 -18 по сезону 1038.5 954.4
09 17.02 штиль 0 20 км 9/0
[Ci sp]
-15.7 -21.7 60 -16 -14 по сезону 1033.7 951.2
12 17.02 ЮВ 1 10 км 6/0
[Ci fib]
-20.2 -25.1 65 -23 -23 по сезону 1033.5 949.6 -15.2
15 17.02 штиль 0 10 км 4/0
[Ci fib]
-25.9 -28.4 79 -26 -26 по сезону 1034.0 948.3
18 17.02 СВ 1 10 км 9/0
[Ac trans Ci fib]
-27.9 -30.3 80 -32 -32 опасность
обморожения
1034.5 948.0
21 17.02 штиль 0 10 км 5/0
[Ci fib]
-29.1 -31.6 79 -29 -29 по сезону 1034.4 947.5
00 18.02 СВ 1 10 км ледяные иглы 4/0
[Ci fib]
-30.5 -33.0 79 -35 -35 опасность
обморожения
1034.6 947.3 -30.5 9
03 18.02 С 1 2000 м ледяные иглы 3/0
[Ci fib]
-28.1 -30.5 80 -32 -30 опасность
обморожения
1034.7 948.2
06 18.02 В 1 20 км 5/0
[Ci fib]
-19.7 -23.8 70 -23 -18 по сезону 1030.5 947.0
09 18.02 штиль 0 20 км 8/0
[Ci fib]
-15.4 -21.4 60 -15 -14 по сезону 1027.5 945.6
12 18.02 штиль 0 10 км 5/0
[Ci fib]
-20.5 -25.4 65 -21 -21 по сезону 1029.6 945.9 -13.8
15 18.02 штиль 0 10 км ясно -24.0 -26.5 80 -24 -24 по сезону 1032.0 947.1
18 18.02 штиль 0 10 км ясно -26.2 -28.7 79 -26 -26 по сезону 1033.6 947.8
21 18.02 СВ 1 10 км 9/0
[Cs]
-25.6 -28.1 79 -29 -29 по сезону 1033.7 948.1
00 19.02 СВ 1 10 км 8/0
[Ac trans Ci fib]
-24.0 -26.5 80 -27 -27 по сезону 1033.9 948.8 -26.4 9
03 19.02 СВ 1 10 км 9/0
[Ac trans Ci fib]
-21.7 -24.9 75 -25 -23 по сезону 1034.5 950.1
06 19.02 штиль 0 20 км 8/0
[Ac trans Ci fib]
-15.8 -20.9 65 -16 -12 по сезону 1032.1 949.7
09 19.02 В 1 20 км 9/0
[Ac trans Ci fib]
-12.6 -18.8 60 -15 -14 по сезону 1030.3 949.0
12 19.02 штиль 0 10 км 10/0
[Ac As]
-15.0 -19.2 70 -15 -15 по сезону 1031.5 949.4 -12.9
15 19.02 штиль 0 10 км 9/0
[Cs]
-16.8 -21.0 70 -17 -17 по сезону 1032.4 949.7
18 19.02 штиль 0 10 км 9/0
[Ac trans Cs]
-20.3 -22.9 80 -20 -20 по сезону 1034.8 950.8
21 19.02 штиль 0 10 км 8/0
[Cs]
-19.0 -21.6 80 -19 -19 тепло 1035.6 951.9
00 20.02 штиль 0 10 км 9/0
[Ac trans Ci fib]
-22.1 -24.7 79 -22 -22 по сезону 1038.5 953.6 -22.5 9
03 20.02 СВ 1 4000 м дымка 9/0
[Cs]
-19.0 -21.6 80 -22 -20 по сезону 1039.6 955.6 -22.6

 

Местоположение метеостанции Кызыл (Тува, Россия): широта 51.72 долгота 94.50 высота над уровнем моря 632 м.

В архиве по умолчанию представлена погода в Кызыле за последнюю неделю. Архивные данные за месяц целиком и за предыдущие месяцы, начиная с января 2011 года, Вы можете получить, выбрав интересующий диапазон дат из раскрывающегося списка и нажав кнопку "Ввод!".


*Определитесь, кто Вы:
робот инопланетянин человек

Внимание! Время в таблицах - всемирное. Для получения местного времени необходимо прибавить поправку, которая равна 7 ч.

Смотрите также архив погоды в соседних городах и на ближайших метеорологических станциях:

Погода в Туране (Тува, Россия) (61 км)
Погода в Сосновке (Тува, Россия) (63 км)
Погода в Сарыг-Сепе (Тува, Россия) (78 км)
Погода в Хову-Аксы (Тува, Россия) (81 км)
Погода в Нижнеусинском (Красноярский край, Россия) (118 км)
Погода в Шагонаре (Тува, Россия) (127 км)
Погода в Тоора-Хем (Тува, Россия) (138 км)
Погода в Оленьей Речке (Красноярский край, Россия) (148 км)
Погода в Усть-Усе (Красноярский край, Россия) (159 км)
Погода в Эрзине (Тува, Россия) (167 км)

Пояснения к столбцам:

Ветер - указаны скорость ветра в м/с - средняя за 10 мин, порывы в срок и между сроками (в фигурных скобках) и направление, откуда дует ветер: С - северный, СВ - северо-восточный, В - восточный, ЮВ - юго-восточный, Ю - южный, ЮЗ - юго-западный, З - западный, СЗ - северо-западный.
Видимость - горизонтальная дальность видимости в метрах или километрах. При видимости от 1 до 10 км при отсутствии осадков обычно наблюдается дымка, при ухудшении видимости до 1 км и менее - туман. В сухую погоду видимость может ухудшаться дымом, пылью или мглою.
Явления - указаны атмосферные явления, наблюдавшиеся в срок или в последний час перед сроком; фигурными скобками обозначены явления, наблюдавшиеся между сроками (за 1-3 часа до срока); квадратными скобками обозначены град или гололедные отложения с указанием их диаметра в мм.
Облачность - указаны через наклонную черту общая и нижняя облачность в баллах и высота нижней границы облаков в метрах; квадратными скобками обозначены формы облаков: Ci - перистые, Cs - перисто-слоистые, Cc - перисто-кучевые, Ac - высококучевые, As - высокослоистые, Sc - слоисто-кучевые, Ns - слоисто-дождевые, Cu - кучевые, Cb - кучево-дождевые. Подробнее классификацию облаков см. в Атласе облаков (PDF).
T - Температура воздуха - температура, измеренная на высоте 2 м над землей.
Td - Температура точки росы - температура, при понижении до которой содержащийся в воздухе водяной пар достигнет насыщения.
f - Относительная влажность воздуха - влажноcть воздуха, измеренная на высоте 2 м над землей.
Te - Эффективная температура - температура, которую ощущает одетый по сезону человек в тени. Характеристика душности погоды. При расчете учитывается влияние влажности воздуха и скорости ветра на теплоощущения человека.
Tes - Эффективная температура на солнце - температура, которую ощущает человек, с поправкой на солнечный нагрев. Характеристика знойности погоды. Зависит от высоты солнца над горизонтом, облачности и скорости ветра. Ночью, в пасмурную погоду, а также при ветре 12 м/с и более поправка равна нулю.
P - Атмосферное давление - приведенное к уровню моря атмосферное давление.
Po - Атмосферное давление - измеренное на уровне метеостанции атмосферное давление.
Tmin - Минимальная температура - минимум температуры воздуха на высоте 2 м над землей.
Tmax - Максимальная температура - максимум температуры воздуха на высоте 2 м над землей.
R - Количество осадков - Количество выпавших осадков за период времени, мм. При наведении курсора мыши на число - период времени, за который выпало указанное количество осадков.
R24 - Количество осадков - Количество выпавших осадков за 24 часа, мм.
S - Снежный покров - Высота снежного покрова, см. При наведении курсора мыши на число - состояние снежного покрова и степень покрытия местности в баллах.